GFSNIL_prec_cloud_003.txt.gz
Cloud_Cover
5 19 39 70 37 7 0 5 0 5 5 2 5 5 3 5 5 47 88 100 100 100
80 90 99 95 47 1 5 0 0 2 0 2 4 2 1 5 22 16 97 100 100 100
0 1 0 0 0 0 0 2 2 2 4 5 5 5 5 25 12 82 100 100 100 100
5 2 0 5 5 5 35 20 5 5 5 5 47 100 98 84 99 51 53 67 78 100
5 0 0 0 2 5 73 5 5 7 68 78 80 78 100 65 100 59 97 100 100 100
4 3 5 4 6 51 4 5 5 13 93 100 100 100 100 100 100 94 100 100 100 100
0 0 5 5 5 5 4 0 0 0 5 10 4 54 87 100 99 69 85 100 100 100
0 5 10 84 6 38 0 4 4 1 4 5 5 10 58 31 5 6 88 91 100 97
0 35 100 94 5 0 0 0 0 0 0 0 5 20 5 5 5 5 5 16 98 100
4 10 4 1 0 0 0 0 0 0 0 0 3 3 5 5 53 25 5 5 6 56
35 5 0 0 0 0 0 3 0 0 0 0 0 1 16 4 5 51 57 13 5 52
2 0 0 0 1 0 0 2 4 0 0 2 15 51 93 76 17 14 14 9 5 70
0 0 0 3 1 0 0 0 5 5 5 5 4 4 0 3 21 54 30 37 100 99
5 0 0 0 1 0 0 0 2 5 5 0 0 0 0 2 36 100 100 100 61 99

GFSNIL_prec_cloud_006.txt.gz
Cloud_Cover
4 4 9 96 47 10 7 6 0 11 94 98 89 51 16 46 100 100 100 100 92 66
5 5 43 96 14 5 5 5 5 2 5 5 73 92 100 100 73 84 90 97 89 98
6 2 3 4 6 15 6 5 5 0 2 4 5 5 5 6 18 34 97 100 100 97
5 9 49 97 88 30 28 5 0 1 5 4 6 29 31 18 54 24 58 43 87 100
100 100 100 81 68 46 5 5 4 25 2 0 3 24 92 99 89 63 5 73 78 77
51 73 100 63 9 5 5 4 0 5 4 5 5 5 5 5 8 56 62 96 100 100
64 21 9 19 5 0 0 0 1 5 5 8 6 5 0 0 0 0 0 0 3 18
87 42 5 5 5 6 28 6 5 6 5 5 5 4 2 0 0 0 3 0 0 0
5 6 41 5 5 2 5 0 0 0 0 0 0 0 0 2 73 33 0 0 0 0
8 4 4 4 4 0 0 0 0 0 2 0 0 0 11 70 54 98 54 10 10 0
0 0 0 0 0 0 0 0 0 0 0 4 5 59 98 24 5 5 4 37 64 43
4 3 4 0 1 5 5 5 5 70 5 54 6 10 5 2 0 0 0 62 99 88
16 6 5 5 5 5 5 5 4 0 1 1 2 2 5 5 3 0 5 4 0 46
99 64 7 14 49 49 26 5 5 4 2 3 2 0 1 5 5 5 2 0 2 5

GFSNIL_prec_cloud_009.txt.gz
Cloud_Cover
5 5 4 5 5 5 1 5 5 6 51 45 27 82 79 99 100 100 39 22 16 72
5 5 0 5 5 5 5 7 68 26 7 38 8 81 100 66 22 5 0 0 60 97
5 5 5 5 4 4 5 37 62 95 100 100 100 81 23 2 5 5 3 5 13 31
3 4 5 5 11 19 20 10 5 45 86 24 5 6 0 0 0 0 1 4 15 25
68 44 58 94 93 78 96 60 13 5 5 5 1 0 0 0 0 1 23 24 0 0
100 100 92 92 80 38 5 5 5 4 2 0 0 0 0 0 0 0 0 0 0 0
90 89 77 41 4 3 2 0 0 0 0 0 0 0 0 0 1 4 5 5 5 3
5 2 0 0 0 0 0 0 0 0 0 0 0 0 0 0 10 88 97 19 5 3
4 2 0 0 0 0 3 5 5 5 6 5 5 5 5 5 97 92 18 4 4 5
5 5 5 5 4 0 0 0 0 0 0 0 0 5 8 67 46 21 20 10 5 5
5 0 0 0 0 0 0 2 3 4 7 19 5 3 65 79 10 8 20 15 24 9
5 0 0 0 0 3 5 5 2 4 1 4 3 3 5 8 1 2 2 4 5 4
5 4 0 0 0 0 0 0 0 3 5 4 1 0 0 0 0 3 6 6 5 5
3 3 0 0 2 5 4 3 2 0 0 0 0 0 0 1 5 13 87 34 17 5

GFSNIL_prec_cloud_012.txt.gz
Cloud_Cover
100 36 5 5 10 11 5 5 5 5 4 5 2 5 5 8 28 5 5 5 31 100
5 5 5 31 23 5 5 4 5 2 5 5 5 5 5 3 5 38 92 93 4 0
5 5 5 5 2 3 5 8 5 3 4 3 0 1 3 5 3 1 0 3 0 1
16 17 6 17 80 84 23 2 0 0 9 27 23 12 2 0 0 0 0 0 0 0
35 16 26 7 29 53 90 97 37 8 5 0 0 0 0 0 0 0 0 0 0 0
13 40 65 51 82 61 34 5 0 0 0 0 0 4 4 5 5 5 5 5 9 2
86 77 92 50 3 0 0 0 0 0 0 0 0 0 0 1 0 5 3 5 5 5
30 5 5 0 0 0 0 0 0 0 0 0 0 2 5 5 7 5 20 16 79 82
5 5 5 2 0 0 0 0 0 0 0 0 0 5 5 5 5 5 5 15 56 93
5 4 0 0 0 0 0 0 0 0 0 0 0 0 0 0 0 3 5 4 5 5
5 0 0 0 0 0 0 0 0 0 0 0 0 0 0 0 0 0 0 3 0 3
4 0 0 0 0 0 0 0 0 0 0 0 0 0 0 0 0 4 5 5 5 5
5 0 0 0 0 0 0 0 0 0 0 0 0 0 0 5 8 6 5 17 12 5
5 5 2 0 0 0 0 0 0 0 0 0 0 0 5 12 82 93 100 40 7 5

GFSNIL_prec_cloud_015.txt.gz
Cloud_Cover
5 40 18 23 11 16 21 9 5 26 49 88 85 42 7 5 8 55 46 4 1 0
5 6 22 50 73 53 57 89 82 97 89 6 5 5 5 5 5 5 4 4 2 0
41 92 61 16 5 5 5 5 9 5 5 5 4 5 4 4 1 0 0 0 0 0
33 18 7 12 5 5 7 5 17 40 46 14 5 5 0 0 0 0 0 0 0 0
53 6 34 6 5 69 95 72 6 5 4 0 0 0 0 0 0 0 0 0 0 4
5 6 32 72 100 100 79 40 5 0 0 0 0 0 0 0 0 0 0 5 4 5
100 100 97 42 25 3 0 0 0 0 0 0 0 0 0 0 0 0 5 3 5 33
2 3 5 0 0 0 0 0 0 0 0 0 0 0 0 0 0 4 0 0 0 0
5 5 5 3 0 0 0 0 0 0 0 0 0 0 0 0 0 0 0 0 0 0
5 5 5 5 3 4 1 0 0 0 0 0 0 0 0 0 0 0 0 1 0 0
5 5 5 5 5 4 0 0 0 0 0 0 0 0 0 1 4 5 5 5 4 5
7 5 5 5 3 0 0 0 0 0 0 0 0 0 0 5 5 5 5 5 16 90
5 5 4 0 0 0 0 0 0 0 0 0 0 0 5 45 64 64 67 76 85 5
5 0 0 0 0 0 0 0 0 0 0 0 4 5 38 94 100 100 100 94 5 7

GFSNIL_prec_cloud_018.txt.gz
Cloud_Cover
0 0 1 5 5 5 5 5 5 5 5 5 5 5 5 5 5 5 5 5 5 2
0 1 5 5 35 26 21 20 5 5 20 9 5 5 5 5 5 1 0 0 0 0
7 39 8 5 5 5 15 17 40 8 5 5 5 5 5 0 0 0 0 0 0 0
48 7 21 52 55 15 5 5 4 4 5 5 4 1 0 0 0 0 0 0 3 15
57 64 41 6 5 5 5 2 5 5 5 0 0 0 0 0 0 0 0 3 5 0
8 5 5 5 5 5 8 16 13 0 0 0 0 0 0 0 0 0 0 5 0 0
71 47 21 5 5 5 4 0 0 0 0 0 0 0 0 0 0 0 0 0 0 4
52 70 10 5 5 5 0 0 0 0 0 0 0 0 0 0 0 0 0 0 0 4
83 79 5 5 5 0 0 0 0 0 0 0 0 0 0 0 4 3 3 4 2 0
5 5 5 5 5 0 0 0 0 0 0 0 0 0 0 5 5 5 5 5 5 5
5 5 5 5 0 0 0 0 0 2 0 0 0 0 5 5 5 5 5 5 5 83
5 5 0 0 0 3 3 5 0 0 0 0 0 0 5 65 34 5 5 5 6 100
5 0 1 2 5 3 4 0 0 0 0 0 0 3 53 94 100 85 29 13 90 5
3 5 4 5 4 0 0 0 0 0 0 0 5 5 69 100 100 86 100 99 5 5

GFSNIL_prec_cloud_021.txt.gz
Cloud_Cover
0 0 0 3 4 5 5 5 18 6 5 5 5 5 5 5 5 5 2 0 0 0
5 32 61 48 27 5 26 27 5 5 5 5 9 6 5 5 0 5 0 0 0 0
98 100 96 60 54 29 6 5 10 42 56 84 63 5 2 0 0 0 0 0 0 2
62 10 19 6 30 11 5 5 5 5 5 5 4 0 0 0 0 0 0 0 0 5
32 22 65 10 20 6 5 2 4 5 5 2 0 0 0 0 0 0 0 0 5 5
36 89 5 6 5 5 5 5 5 5 5 1 0 0 0 0 0 0 0 0 0 0
83 96 11 5 5 5 5 5 5 4 0 0 0 0 0 0 0 0 0 0 5 2
99 52 6 5 5 5 5 5 0 0 0 0 0 0 0 0 0 4 4 5 5 5
75 6 5 5 5 5 4 0 0 0 0 0 0 0 0 5 5 5 5 5 5 5
5 5 5 2 5 0 0 0 0 0 0 0 0 0 0 5 13 44 5 61 43 5
5 5 2 0 0 0 0 0 0 0 0 0 0 0 5 40 58 24 60 79 61 74
2 0 0 0 0 0 0 0 0 0 0 0 0 2 28 82 36 19 63 16 86 100
0 0 0 0 0 0 1 3 0 0 0 0 0 5 76 95 48 19 5 83 84 11
0 0 0 0 0 0 2 0 0 0 0 1 6 60 82 100 100 86 98 99 36 5

GFSNIL_prec_cloud_024.txt.gz
Cloud_Cover
5 10 34 11 5 2 4 12 50 46 6 5 17 5 5 5 4 4 4 5 1 0
24 99 56 49 9 22 96 100 81 49 6 5 5 5 5 5 5 4 0 0 0 0
64 58 63 75 71 84 79 98 60 16 5 5 4 5 5 5 1 0 0 0 0 0
13 78 100 97 76 64 25 6 5 5 5 5 5 5 0 0 0 0 0 0 0 0
90 79 60 76 53 26 5 5 5 5 5 5 5 0 0 0 0 0 0 0 0 0
97 34 76 80 14 6 5 5 1 5 5 0 0 0 0 0 0 0 0 0 0 4
30 82 46 8 5 7 6 4 5 0 0 0 0 0 0 0 0 0 0 2 5 5
82 69 12 6 63 18 0 0 0 0 0 0 0 0 0 0 0 2 5 5 5 14
22 6 16 98 5 0 0 0 0 0 0 0 0 0 0 5 5 5 5 5 6 63
45 92 28 4 0 0 0 0 0 0 0 0 0 0 2 5 5 64 58 82 73 74
81 12 0 0 0 0 0 0 0 0 0 0 0 0 5 29 32 42 63 92 100 98
5 0 0 0 0 0 0 0 0 0 0 0 0 0 24 76 77 75 88 99 100 100
0 0 0 0 0 0 0 0 0 0 0 0 0 2 69 93 100 91 100 97 100 100
0 0 0 0 0 0 0 0 0 0 0 0 4 5 74 100 100 98 60 81 81 96

GFSNIL_prec_cloud_027.txt.gz
Cloud_Cover
0 0 2 0 5 5 26 11 60 58 21 5 7 5 5 5 5 5 5 5 6 33
4 5 0 5 7 21 29 13 38 41 88 77 5 5 5 5 5 5 5 5 5 2
5 5 5 8 56 100 78 96 45 49 40 5 15 5 5 5 4 3 5 1 0 0
5 5 5 42 64 94 86 96 100 82 40 6 5 5 5 3 2 1 0 0 0 0
5 5 24 54 100 100 100 96 44 6 5 6 5 5 0 0 0 0 0 0 0 0
5 70 5 10 98 93 68 45 6 9 14 28 5 0 0 0 0 0 0 0 0 0
87 78 89 51 18 70 27 10 32 6 5 4 0 0 0 0 0 0 0 0 5 5
59 45 5 54 11 6 5 5 5 2 0 0 0 0 0 0 0 3 5 5 5 5
20 57 94 18 5 5 5 5 5 0 0 0 0 0 0 0 5 5 5 5 5 5
100 95 70 28 5 5 5 1 0 0 0 0 0 0 0 3 5 5 5 5 5 5
95 72 9 11 5 2 0 0 0 0 0 0 0 0 0 5 5 20 65 61 72 36
5 20 26 5 0 0 1 1 0 0 0 0 0 0 5 19 45 5 5 99 100 100
5 5 2 0 5 5 0 0 0 0 0 0 0 0 5 71 97 64 89 59 55 63
4 0 4 5 4 0 0 0 0 0 0 0 0 5 10 78 100 100 94 94 43 92

GFSNIL_prec_cloud_030.txt.gz
Cloud_Cover
0 0 0 0 0 1 5 0 5 5 5 5 5 5 5 5 5 5 5 5 5 24
0 0 0 0 0 0 1 5 5 5 5 7 5 5 5 5 5 6 16 62 15 16
0 0 0 4 3 2 5 15 63 73 59 37 5 5 5 8 56 100 60 6 22 45
0 0 3 4 4 15 79 88 98 88 11 5 5 20 51 74 64 20 6 20 2 0
0 0 2 5 20 93 92 79 81 70 45 18 69 37 9 73 15 37 4 0 0 0
3 5 5 89 96 100 100 100 67 49 11 16 66 92 29 71 5 4 0 0 0 0
5 6 99 99 100 100 100 100 95 68 99 99 64 18 5 5 0 0 0 0 0 4
73 100 100 100 100 100 100 100 100 99 76 62 8 5 1 0 0 0 0 0 5 5
100 100 100 100 100 100 100 96 100 32 5 0 2 0 0 0 0 1 5 5 5 5
100 100 100 100 100 88 75 53 5 5 0 0 0 0 0 0 5 5 5 5 5 5
100 100 100 93 60 26 15 5 0 0 0 0 0 0 0 3 5 5 5 5 10 16
100 95 56 31 34 5 5 1 0 0 0 0 0 0 0 5 10 5 5 18 100 97
16 37 33 55 8 5 2 0 0 0 0 0 0 0 3 5 31 86 32 79 71 68
25 49 36 91 24 5 0 0 0 0 0 0 0 0 5 20 100 100 90 94 80 52

GFSNIL_prec_cloud_033.txt.gz
Cloud_Cover
0 0 0 0 0 0 0 0 0 0 1 5 5 5 5 5 5 5 3 3 0 5
0 0 0 0 0 0 0 0 0 5 6 56 54 5 5 5 5 5 5 5 5 17
0 0 0 0 0 0 0 5 43 76 91 57 11 5 5 5 5 5 6 5 7 40
0 0 0 0 0 5 19 75 97 81 71 19 5 5 12 55 37 54 63 11 5 5
0 3 4 4 5 95 98 96 75 69 30 5 5 54 88 62 49 11 13 5 5 0
11 5 5 9 68 85 94 68 52 72 85 81 84 91 35 5 5 5 4 0 0 0
5 5 49 89 92 92 88 100 100 100 91 95 13 5 5 5 4 0 0 0 0 0
47 88 78 94 67 70 100 100 95 100 50 6 5 5 5 0 0 0 0 0 0 0
67 84 88 84 95 100 97 100 94 6 5 5 2 2 5 0 0 0 2 5 5 5
100 93 100 100 98 100 86 10 12 5 5 4 5 5 1 0 1 5 5 5 5 5
99 92 98 100 98 48 5 8 5 5 5 5 5 1 0 2 5 5 5 5 5 29
97 100 100 88 9 5 5 5 5 5 5 5 5 4 0 5 5 5 5 5 18 100
100 100 90 5 5 5 27 5 5 5 5 5 1 0 5 47 6 5 5 8 84 38
100 66 30 9 29 42 39 52 5 6 5 0 0 0 5 72 100 72 85 84 83 5

GFSNIL_prec_cloud_036.txt.gz
Cloud_Cover
0 0 0 0 0 0 0 0 0 0 0 0 1 5 5 5 3 5 5 5 5 1
0 0 0 0 0 0 0 0 0 0 1 5 5 5 5 5 5 5 5 5 5 5
0 2 2 0 0 1 0 1 0 5 5 5 5 5 5 5 5 5 5 5 5 3
4 3 0 4 5 5 5 2 3 5 5 5 5 5 5 5 5 5 5 5 5 4
4 3 5 6 72 6 5 5 5 5 5 5 5 9 11 5 5 5 5 5 0 0
5 5 5 5 5 4 5 28 28 5 11 5 64 93 31 4 1 0 0 2 2 5
5 33 5 5 5 10 60 26 5 31 33 30 50 12 4 3 5 5 5 5 2 0
59 55 14 5 88 95 34 72 72 66 98 55 5 5 5 5 5 5 4 0 3 5
72 34 41 100 92 98 80 76 62 81 5 5 5 5 5 2 5 0 5 5 5 0
52 77 81 78 99 100 94 88 60 37 5 5 5 5 4 2 3 5 5 1 4 2
99 93 96 78 100 73 41 98 61 5 5 5 5 4 0 4 5 4 1 5 5 60
99 93 58 51 70 97 99 59 49 17 5 5 5 0 2 5 5 5 5 4 88 78
8 73 93 100 100 85 72 98 25 5 5 0 0 0 5 26 5 5 5 64 63 87
99 100 100 100 75 69 97 60 5 5 5 0 0 0 5 75 98 18 99 13 77 5

GFSNIL_prec_cloud_039.txt.gz
Cloud_Cover
63 26 12 5 3 0 0 0 0 0 0 0 0 0 0 0 0 0 0 0 0 0
51 7 5 0 0 5 1 0 0 0 0 0 0 0 0 4 2 4 5 5 5 5
37 5 0 0 3 4 0 1 0 0 0 0 1 3 4 1 5 5 5 5 5 5
5 5 2 3 4 1 5 5 0 0 0 5 5 4 4 5 5 5 5 5 5 5
5 5 5 5 5 5 5 5 0 2 5 5 5 5 5 5 5 5 5 5 5 3
13 5 5 5 5 6 5 2 5 41 26 5 9 5 5 5 5 5 5 5 4 0
5 5 5 5 12 78 5 8 27 5 5 9 6 5 5 5 5 5 5 5 0 0
5 5 6 66 83 5 39 5 5 56 63 5 5 9 5 5 5 5 1 0 0 0
5 40 86 96 93 74 5 50 5 5 5 31 65 6 5 5 5 5 0 0 0 0
64 97 100 99 95 92 43 5 24 32 65 74 5 5 5 5 5 0 2 0 0 3
94 100 94 99 99 10 16 78 87 80 52 5 5 5 0 5 5 5 0 2 5 55
100 99 100 36 5 76 92 99 100 22 5 5 5 5 5 5 5 5 5 5 98 59
100 82 5 47 100 100 100 88 5 58 5 5 5 5 5 5 5 5 6 99 58 44
5 8 81 100 100 94 42 18 26 11 5 5 5 5 5 5 50 10 96 13 49 5

GFSNIL_prec_cloud_042.txt.gz
Cloud_Cover
100 72 60 28 5 60 80 98 74 16 5 0 0 0 0 0 0 0 5 2 0 5
38 11 12 5 32 71 76 77 24 5 5 5 5 1 0 0 5 5 1 5 5 5
5 5 44 95 79 84 72 56 5 5 5 5 5 0 4 5 5 5 5 5 5 5
5 48 26 95 71 54 42 7 5 5 5 5 5 5 5 5 5 5 5 5 5 4
23 65 19 66 54 11 5 5 5 18 5 5 5 5 5 5 5 5 5 5 5 4
27 50 35 17 5 5 5 5 11 73 5 5 5 5 5 4 5 5 5 5 0 0
28 8 7 17 30 5 20 53 73 38 38 5 5 5 4 5 5 5 5 5 5 4
6 5 14 48 16 58 48 60 80 93 5 5 5 5 5 5 5 5 5 5 4 0
26 60 51 27 94 74 77 80 80 56 4 5 5 5 5 5 5 5 23 5 5 0
83 68 73 99 78 94 86 97 9 5 5 5 5 5 5 5 11 89 6 5 4 5
46 45 98 98 96 100 89 7 5 5 5 5 5 5 9 59 84 33 5 4 5 5
35 93 100 100 95 35 6 5 5 5 5 5 20 74 92 61 49 5 5 5 70 37
100 100 91 78 25 53 5 16 65 58 19 10 60 71 10 5 5 5 5 80 10 28
100 96 16 66 53 60 17 5 5 26 62 61 5 5 5 5 17 17 99 15 67 32

GFSNIL_prec_cloud_045.txt.gz
Cloud_Cover
100 99 100 100 100 100 100 100 77 93 53 35 16 5 5 5 5 5 3 5 5 0
100 100 100 100 100 100 100 84 60 56 46 36 6 8 5 5 5 5 4 5 5 3
100 100 83 90 96 98 56 5 14 29 11 6 27 5 5 5 5 5 5 5 5 0
100 43 58 93 99 23 5 11 50 6 11 64 30 5 5 5 5 5 5 5 0 0
6 14 100 100 97 7 30 6 8 36 65 50 5 5 5 5 5 5 2 0 1 5
5 92 100 100 47 17 51 51 68 69 21 5 51 5 23 28 5 0 1 1 4 5
46 100 100 100 64 64 70 91 61 47 18 61 56 34 23 2 5 5 5 5 5 5
62 100 100 78 92 91 100 56 54 40 73 70 82 12 1 5 5 5 5 5 5 5
96 99 83 90 100 100 50 59 79 81 70 38 5 5 5 5 5 5 5 5 5 3
67 91 99 100 97 59 59 94 77 9 5 5 5 5 5 5 5 5 5 5 2 5
100 100 100 81 96 98 78 44 5 4 5 5 5 5 5 5 5 5 5 0 5 5
100 100 84 99 100 81 8 3 5 5 5 5 5 13 39 6 5 5 5 5 5 5
77 75 100 100 72 5 5 5 5 13 5 51 26 46 56 12 5 81 21 84 67 93
98 100 100 16 5 5 5 75 71 16 5 5 39 7 5 5 56 82 81 21 71 58

GFSNIL_prec_cloud_048.txt.gz
Cloud_Cover
60 100 100 99 100 100 100 84 22 11 92 100 100 100 74 20 24 52 48 22 5 5
97 100 100 100 100 100 97 100 96 85 88 100 100 87 19 5 36 19 6 5 5 5
47 100 100 97 100 100 100 100 100 100 99 98 88 18 5 5 12 5 5 5 5 5
88 100 100 100 100 76 99 100 91 52 35 5 5 19 56 5 5 6 16 5 5 5
46 100 100 100 95 84 66 26 57 58 15 5 71 92 22 5 54 57 7 6 5 2
100 100 100 100 90 70 40 54 79 72 29 79 98 41 44 68 34 17 5 5 1 0
100 100 100 100 100 100 47 89 99 51 85 97 29 27 34 23 12 5 5 5 0 0
85 100 100 100 98 85 100 82 52 99 89 57 47 68 24 5 5 5 5 5 5 5
100 100 100 98 100 98 74 79 100 68 75 97 86 12 5 5 5 5 5 5 5 5
100 100 100 100 100 100 95 89 80 84 91 68 5 5 5 5 5 5 5 5 5 5
99 100 100 100 100 100 100 91 89 92 29 5 5 5 5 5 5 5 5 5 5 64
100 100 100 100 100 100 79 85 68 5 5 5 5 5 5 5 5 5 5 5 55 93
100 100 100 100 100 99 93 5 5 5 5 5 5 5 5 5 5 5 5 6 56 78
100 100 100 100 96 28 6 5 5 5 5 5 3 1 3 5 5 5 54 77 74 91

GFSNIL_prec_cloud_051.txt.gz
Cloud_Cover
0 0 37 54 98 100 100 100 100 100 100 100 100 100 97 71 80 96 96 100 52 5
0 2 60 100 100 100 100 100 100 94 100 100 100 95 63 86 100 94 69 36 5 5
9 38 100 100 100 100 100 100 100 96 86 100 97 94 98 76 48 77 41 5 5 5
45 100 100 100 100 100 99 100 98 100 100 100 91 63 75 63 70 68 7 5 5 5
98 100 100 100 100 97 97 100 100 100 100 100 91 66 50 85 53 5 5 5 5 5
100 100 100 87 100 96 100 100 100 100 100 100 74 69 85 30 5 5 5 5 5 5
100 100 100 100 100 99 100 100 100 100 99 80 64 76 68 5 14 5 5 5 5 5
100 100 100 100 97 100 99 100 100 100 100 86 96 77 55 33 5 5 5 5 5 1
100 100 100 100 98 70 100 100 100 100 94 100 74 76 67 33 16 5 5 5 5 0
100 95 98 100 96 100 100 100 100 100 97 77 88 79 68 16 5 5 4 0 0 1
87 97 100 100 100 100 100 100 100 100 98 97 46 23 5 5 5 0 0 0 1 5
90 100 100 100 100 100 100 100 100 100 100 20 22 5 5 5 5 0 4 1 0 5
100 100 100 100 100 100 100 100 100 97 24 7 6 70 10 5 5 2 2 5 5 35
100 100 100 100 100 100 100 100 80 24 73 99 47 5 5 5 5 5 5 5 5 5

GFSNIL_prec_cloud_054.txt.gz
Cloud_Cover
4 5 1 0 33 27 99 99 100 100 100 100 100 100 68 100 59 25 94 100 100 61
63 7 3 27 78 100 100 100 100 100 100 98 55 92 26 96 100 100 100 100 68 12
5 5 12 71 97 100 100 100 100 100 100 100 100 100 93 85 81 100 100 65 38 5
7 0 46 100 100 99 100 100 100 97 100 99 100 100 100 100 98 91 95 59 38 5
5 43 100 100 100 100 100 98 100 100 100 100 100 100 100 100 100 100 58 60 6 5
60 100 100 100 100 100 100 100 100 100 98 100 100 100 100 100 98 82 74 10 37 5
100 100 100 100 100 100 100 94 100 98 100 100 100 100 100 100 99 70 8 6 5 5
100 100 100 100 100 79 100 100 100 100 100 100 100 100 100 100 93 44 44 23 5 5
100 100 100 100 100 100 99 100 100 92 100 100 100 100 100 100 100 98 99 34 5 4
100 100 100 100 100 100 100 100 95 100 100 100 100 100 100 100 100 93 91 10 5 5
100 100 100 100 100 100 100 97 100 100 100 100 100 100 100 100 100 98 7 5 5 0
100 100 100 100 100 100 100 100 100 100 100 100 100 100 100 100 86 75 6 5 1 0
100 100 100 100 100 100 100 100 100 100 100 100 100 100 100 96 17 30 5 5 4 5
100 100 100 100 100 100 100 100 100 100 100 100 100 100 100 33 10 5 10 5 5 5

GFSNIL_prec_cloud_057.txt.gz
Cloud_Cover
0 4 5 5 68 100 86 40 94 99 80 99 100 100 100 68 93 100 55 90 100 100
0 0 5 67 96 100 100 100 65 87 99 94 100 100 80 100 97 86 74 92 95 98
0 2 1 1 15 91 100 97 94 98 99 100 100 100 100 63 100 100 100 55 100 100
0 2 5 5 5 29 100 100 100 100 99 100 50 70 100 69 93 100 100 100 100 100
3 0 5 3 50 100 100 100 100 100 100 100 100 90 100 99 100 100 100 100 100 100
100 100 98 26 83 100 100 100 100 100 100 100 100 100 100 100 90 100 100 100 100 100
100 100 99 56 100 100 100 100 100 100 100 100 100 100 100 100 100 100 100 98 99 100
100 100 100 100 100 100 100 100 100 100 100 100 100 100 75 90 100 100 100 92 94 100
100 96 100 100 100 100 100 100 100 100 100 100 100 97 79 100 100 100 100 90 99 100
100 100 100 100 100 100 100 100 100 100 100 100 76 98 100 100 100 100 98 95 100 100
100 100 100 100 100 100 100 100 100 100 100 100 98 99 100 100 100 100 100 100 100 86
100 100 100 100 100 100 100 100 100 100 99 100 100 100 100 100 100 100 100 100 88 51
100 100 100 100 100 100 100 100 100 100 100 100 100 100 100 100 100 100 100 100 24 5
100 100 100 100 100 100 100 100 97 100 100 100 100 100 100 100 100 100 91 33 6 5

GFSNIL_prec_cloud_060.txt.gz
Cloud_Cover
4 2 2 11 5 0 0 5 73 100 100 100 100 100 98 100 100 100 100 100 99 9
11 1 0 0 0 0 2 4 73 100 100 100 100 100 100 100 100 100 100 100 92 50
15 0 0 0 0 5 6 59 96 100 100 100 100 100 100 100 100 100 100 98 57 8
23 16 1 0 0 5 57 99 100 100 100 100 100 100 100 100 100 100 100 94 5 55
4 33 23 45 50 99 100 100 100 100 100 100 100 100 100 100 100 100 95 79 96 71
2 5 20 41 34 67 97 100 100 100 100 100 100 100 100 100 100 100 100 100 98 5
27 52 57 47 98 100 100 100 100 100 100 100 100 100 100 100 100 100 100 100 15 38
77 83 16 96 100 100 100 100 100 100 100 100 100 100 100 100 100 100 80 57 72 72
100 100 100 85 100 100 100 100 100 100 100 100 100 100 100 100 100 99 87 72 50 13
90 100 100 100 100 100 100 100 100 100 100 100 100 100 100 100 99 94 52 68 88 89
100 100 100 100 100 100 100 100 100 100 100 100 100 100 100 100 100 90 87 99 93 100
100 100 100 100 100 100 100 100 100 100 100 100 100 77 100 98 88 100 99 100 100 97
100 100 100 100 100 100 100 100 100 100 99 100 100 100 99 100 100 100 100 100 100 100
100 100 100 100 100 100 100 100 100 100 100 99 100 100 100 100 100 100 100 100 100 100

GFSNIL_prec_cloud_063.txt.gz
Cloud_Cover
99 99 63 47 45 5 22 89 6 5 24 55 86 100 100 100 100 100 100 100 100 100
83 21 10 5 5 5 5 29 11 5 34 98 100 100 100 100 100 100 100 100 100 100
41 27 11 1 2 4 5 6 11 5 12 91 100 100 100 100 100 100 100 100 100 100
47 33 31 17 11 9 5 4 4 23 80 100 100 100 100 100 100 100 100 100 100 100
56 38 50 49 43 47 50 27 31 91 100 100 100 100 100 100 100 100 100 100 100 100
72 79 100 100 99 90 100 100 100 100 100 100 100 100 100 100 100 100 100 100 100 100
100 100 100 100 100 100 100 100 100 100 100 100 100 100 100 100 100 100 100 100 100 100
100 100 100 100 100 100 100 100 100 100 100 100 100 100 100 100 100 100 100 100 100 100
100 100 100 100 100 100 82 100 100 100 100 100 100 100 100 100 100 100 100 96 100 100
100 100 100 100 100 100 100 100 100 100 100 100 100 100 100 100 100 100 100 100 100 100
100 100 100 100 100 100 100 100 100 100 100 100 100 100 100 100 100 99 100 100 100 100
100 100 100 100 100 100 100 100 100 100 100 100 100 100 100 100 100 100 100 100 100 95
100 100 100 100 100 100 100 100 100 100 100 100 100 100 100 100 100 100 100 99 78 100
100 100 100 100 100 100 100 100 100 100 100 100 100 100 97 81 86 100 100 100 98 55

GFSNIL_prec_cloud_066.txt.gz
Cloud_Cover
64 64 51 98 91 100 100 100 100 56 65 89 91 99 100 98 100 100 99 70 100 100
22 40 51 24 48 97 98 100 100 99 94 98 100 99 100 100 100 100 100 100 100 100
100 100 99 100 100 100 100 100 100 100 100 100 100 100 100 100 100 100 100 100 100 100
67 94 100 100 71 65 60 47 57 52 90 99 100 100 100 100 100 100 100 100 100 100
98 100 100 100 100 100 100 100 100 100 100 100 100 100 100 100 100 100 100 100 100 100
100 100 100 100 100 100 100 100 100 100 100 100 100 100 100 100 100 100 100 100 100 100
100 100 100 100 100 100 100 100 100 100 100 100 100 100 100 100 100 100 100 100 100 100
100 100 100 100 100 100 100 100 100 100 100 100 100 100 100 100 100 100 100 100 100 100
100 100 100 100 100 100 100 100 100 100 100 100 100 100 100 100 100 100 100 100 100 100
100 96 100 100 100 100 100 100 100 100 98 93 100 100 100 100 100 100 100 100 100 100
100 92 100 100 100 100 100 100 100 100 100 100 100 100 100 100 100 100 100 100 100 100
100 100 100 100 100 100 100 100 100 100 100 100 100 100 100 100 100 100 100 100 100 100
100 100 100 100 100 100 100 100 100 100 100 100 100 100 100 100 100 100 100 100 100 100
100 100 100 100 100 100 100 100 100 100 100 100 100 100 100 100 100 100 100 100 100 100

GFSNIL_prec_cloud_069.txt.gz
Cloud_Cover
100 100 100 100 100 100 100 100 100 100 75 60 59 88 96 99 99 100 100 100 100 100
100 100 100 100 100 100 100 100 100 100 100 100 100 100 100 100 100 100 100 100 100 100
100 100 83 86 100 100 100 100 100 100 100 100 100 100 100 100 100 100 100 100 100 100
29 14 97 100 100 100 100 100 100 100 100 100 100 100 100 100 100 100 100 100 100 100
94 100 100 100 100 100 100 100 100 100 100 100 100 100 100 100 100 100 100 100 100 100
100 100 100 100 100 100 100 100 100 100 100 100 100 100 100 100 100 100 100 100 100 100
100 100 100 100 100 100 100 100 100 100 100 100 100 100 100 100 100 100 100 100 100 100
100 100 100 100 100 100 100 100 100 100 100 100 100 100 100 100 100 100 100 100 100 100
100 100 100 100 100 100 100 100 100 100 100 100 100 100 100 100 100 100 100 100 100 100
100 100 100 100 88 96 100 100 100 100 100 100 100 100 100 100 100 100 100 100 100 100
100 100 99 93 87 100 100 100 100 100 100 100 100 100 100 100 100 100 100 100 100 100
100 100 100 100 100 100 100 100 100 100 100 100 100 100 100 100 100 100 100 100 100 100
100 100 100 100 100 100 100 100 100 100 100 100 100 100 100 100 100 100 100 100 100 100
100 100 100 100 100 100 100 100 100 100 100 100 100 100 100 99 100 100 100 95 100 100

GFSNIL_prec_cloud_072.txt.gz
Cloud_Cover
100 100 100 100 100 100 100 100 100 100 100 100 100 100 100 100 100 100 100 100 100 100
100 100 100 100 100 100 100 100 100 100 100 100 100 100 100 100 100 100 100 100 100 100
100 100 100 100 100 100 100 100 100 100 100 100 100 100 100 100 100 100 100 100 100 100
100 100 100 94 100 100 100 100 100 100 100 100 100 100 100 100 100 100 100 100 100 100
47 48 74 98 100 100 100 100 100 100 100 100 100 100 100 100 100 100 100 100 100 100
100 100 100 100 100 100 100 100 77 99 100 100 100 100 100 100 100 100 100 100 100 100
100 100 100 100 100 100 100 100 100 100 100 100 100 100 100 100 100 100 100 100 100 100
100 100 100 100 100 100 100 100 100 100 100 100 100 100 100 100 100 100 100 100 100 100
100 100 100 100 100 100 100 100 100 100 100 100 100 100 100 100 100 100 100 100 100 100
100 100 100 100 100 100 100 100 100 100 100 100 100 100 100 100 100 100 100 100 100 100
100 100 100 100 100 100 100 100 100 100 100 100 100 100 100 100 100 100 100 100 100 100
100 100 100 100 100 100 100 100 100 100 100 100 100 100 100 100 100 100 100 100 100 100
100 100 100 100 100 100 100 100 100 100 100 100 100 100 100 100 100 100 100 100 100 100
100 100 100 100 100 100 100 96 100 100 97 92 100 100 100 100 100 100 100 100 100 100

GFSNIL_prec_cloud_075.txt.gz
Cloud_Cover
100 100 97 100 100 88 98 100 100 100 100 100 100 100 100 100 100 100 100 100 100 100
100 100 100 100 100 100 100 100 100 100 100 100 100 100 100 100 100 100 100 100 100 100
100 100 100 100 100 100 100 100 100 100 100 100 100 100 100 100 100 100 100 100 100 100
99 100 100 100 100 100 100 100 100 100 100 100 100 100 100 100 100 100 100 100 100 100
100 100 100 100 100 100 100 100 100 100 100 100 100 100 100 100 100 100 100 100 100 100
100 100 100 100 100 100 100 100 100 100 100 99 99 100 100 100 100 100 100 100 100 100
100 100 100 100 100 100 100 100 100 100 100 100 100 100 100 100 100 100 100 100 100 100
100 100 100 100 100 100 100 100 100 100 100 100 100 100 100 100 100 100 100 100 100 100
100 100 100 100 100 100 100 100 100 100 100 100 100 100 99 100 100 100 100 100 100 100
100 100 100 100 100 100 100 100 100 100 100 100 100 100 100 100 100 100 100 100 100 100
100 100 100 100 99 100 100 100 100 100 100 100 100 91 96 94 100 100 100 100 100 100
100 100 100 100 100 100 100 100 100 99 84 88 100 95 96 48 47 71 90 100 100 100
100 100 100 100 100 100 100 100 100 100 99 88 48 29 15 5 72 80 79 99 100 100
100 100 100 100 100 100 100 100 72 32 9 25 13 5 57 90 98 100 100 100 100 100

GFSNIL_prec_cloud_078.txt.gz
Cloud_Cover
93 85 63 8 25 56 80 87 99 100 100 100 100 100 100 100 100 100 100 100 100 100
77 75 58 12 67 99 100 100 100 100 100 100 100 100 100 100 100 100 100 100 100 100
100 95 92 100 98 100 100 99 75 69 100 100 100 100 100 100 100 100 100 100 100 100
100 96 95 100 100 100 91 95 100 100 100 100 100 100 100 100 100 100 100 100 100 100
100 100 100 100 100 100 100 100 100 100 100 100 100 100 100 100 100 100 100 100 100 100
100 100 100 100 100 100 100 100 100 100 100 100 100 100 100 100 100 100 100 100 100 100
100 100 100 100 100 100 100 100 100 100 100 100 100 100 100 100 100 100 100 100 100 100
100 100 100 100 100 100 100 100 100 100 100 100 100 100 100 100 95 100 100 100 100 100
100 100 100 100 100 100 100 100 100 100 100 100 95 30 18 27 80 100 100 100 100 100
100 100 100 100 100 100 100 100 100 99 100 100 100 97 84 48 44 76 70 100 96 97
100 100 100 100 100 100 100 100 100 100 100 100 100 100 79 60 64 90 36 5 5 5
100 100 100 100 100 100 100 100 100 44 40 36 58 65 72 5 5 5 5 5 6 34
100 100 100 100 100 100 100 99 99 42 6 5 5 5 4 3 5 5 5 5 5 10
100 100 100 100 100 100 100 91 18 5 5 5 0 5 5 3 5 3 2 5 5 0

GFSNIL_prec_cloud_081.txt.gz
Cloud_Cover
100 95 100 100 100 100 100 100 100 95 100 100 100 100 100 99 99 100 100 93 100 98
100 100 100 96 98 100 100 100 100 100 100 100 100 100 100 100 99 87 100 100 96 100
90 88 80 80 87 89 88 99 82 43 84 98 98 96 100 100 100 100 100 100 100 100
68 61 44 51 36 75 60 63 54 48 35 97 100 100 100 100 100 100 100 100 100 100
90 56 23 95 100 88 100 90 87 66 92 91 100 100 100 100 100 100 100 100 100 100
100 100 100 100 100 100 100 89 100 81 100 100 100 100 100 100 100 100 100 100 100 100
100 100 100 100 100 100 100 100 100 100 100 100 100 100 100 100 100 100 84 94 100 100
100 100 100 100 100 100 100 100 100 100 100 100 100 100 100 100 100 100 92 98 100 100
100 100 100 100 100 100 100 100 100 100 100 100 100 100 98 13 35 62 100 100 100 100
100 100 100 100 100 100 100 100 100 100 100 100 100 97 53 13 9 32 56 70 90 77
100 100 100 100 100 100 100 100 100 100 100 100 100 98 73 70 50 26 7 5 5 5
100 100 100 100 100 100 100 100 100 100 63 52 10 7 5 5 5 5 5 5 5 0
100 100 100 100 100 100 96 41 48 17 5 5 5 5 1 2 5 5 5 4 1 5
100 100 100 100 100 88 66 8 5 5 5 2 0 5 4 0 1 0 1 0 0 5

GFSNIL_prec_cloud_084.txt.gz
Cloud_Cover
100 96 75 76 80 100 100 100 100 100 98 89 100 100 100 100 100 74 89 85 73 90
100 100 100 100 100 100 100 100 100 100 100 100 100 100 100 98 100 100 100 100 100 100
100 100 100 100 100 100 100 100 100 100 100 100 94 97 100 100 98 100 100 100 100 100
78 84 52 86 100 100 100 100 100 100 98 100 100 98 100 100 99 100 100 100 100 100
100 100 98 100 100 100 42 80 66 81 96 67 100 100 100 100 100 100 100 100 100 100
100 100 100 100 100 99 100 98 69 39 99 82 100 100 93 100 100 100 100 100 100 100
100 100 100 100 100 100 100 100 100 100 100 100 100 100 100 100 100 100 100 100 100 99
100 100 100 100 100 100 100 100 100 100 100 100 100 100 100 100 100 100 100 99 99 100
100 100 100 100 100 100 100 100 100 100 100 100 100 100 100 100 100 100 100 100 100 100
100 100 100 100 100 100 100 100 100 100 100 100 100 100 100 100 100 99 100 100 90 14
100 100 100 100 100 100 100 100 100 100 100 100 100 100 100 100 49 10 9 5 5 5
100 100 100 100 100 100 100 100 100 100 100 100 100 100 99 6 8 5 5 5 5 3
100 100 100 100 100 100 100 100 100 100 100 100 88 74 39 13 5 5 5 4 5 5
100 100 100 100 100 100 100 100 100 55 70 78 58 46 8 14 5 1 5 2 5 5

GFSNIL_prec_cloud_087.txt.gz
Cloud_Cover
100 100 100 100 100 100 100 100 100 100 100 100 100 100 100 100 100 100 100 100 100 100
98 98 92 100 100 100 100 100 100 100 100 100 100 100 100 100 100 100 100 100 100 100
79 96 98 100 100 100 100 100 100 100 100 100 100 100 100 100 88 100 100 87 100 100
100 100 84 90 100 100 100 100 100 100 100 100 100 98 100 100 88 81 100 91 100 100
99 100 100 100 100 100 100 100 100 100 100 100 100 100 100 100 99 100 99 99 100 100
100 100 100 100 100 98 100 100 100 100 100 100 100 100 100 100 100 100 100 100 100 100
100 95 100 100 88 99 100 100 100 100 100 100 100 100 100 100 100 100 100 100 100 100
100 100 100 100 100 100 100 100 100 100 100 100 100 100 100 100 100 100 100 100 100 100
100 100 100 100 100 100 100 100 100 100 100 100 100 100 100 100 100 100 100 100 100 100
100 100 100 100 100 100 100 100 100 100 100 100 100 100 92 100 100 100 100 100 100 100
100 100 100 100 100 100 100 100 100 100 100 100 100 100 100 100 100 100 100 100 100 100
100 100 100 100 100 100 100 100 100 100 100 100 100 100 100 100 100 100 100 100 97 17
100 100 100 100 100 100 100 100 100 100 100 100 100 100 100 100 100 100 59 9 34 6
100 100 100 100 100 100 100 100 100 100 100 100 100 100 100 100 76 73 5 12 5 23

GFSNIL_prec_cloud_090.txt.gz
Cloud_Cover
100 100 100 100 100 100 100 100 100 100 100 100 100 100 100 100 100 100 100 100 100 100
100 100 100 100 100 100 100 100 100 100 100 100 100 100 100 100 100 100 100 100 100 100
100 98 100 100 100 100 100 100 100 100 100 100 100 100 100 100 100 100 100 100 100 100
30 8 27 68 98 100 100 100 100 100 100 100 100 100 100 100 100 100 100 100 100 100
100 86 88 99 93 91 82 47 52 99 100 100 100 100 100 100 100 100 100 100 100 100
100 100 100 96 97 68 19 60 63 96 100 95 97 100 100 100 100 100 100 100 100 100
100 100 100 100 100 100 100 100 100 100 100 100 100 100 100 100 100 100 100 100 100 100
99 100 100 100 100 100 100 100 100 100 98 100 100 100 100 100 100 100 100 100 100 100
100 100 100 100 100 100 100 100 100 100 100 100 100 100 100 100 100 100 100 100 100 100
100 100 100 100 100 100 100 100 100 100 100 100 100 100 100 100 100 100 100 100 100 100
100 100 100 100 100 100 100 100 100 100 100 100 100 100 100 100 100 100 100 100 100 100
99 92 100 100 100 100 100 100 100 100 100 100 100 100 100 100 100 100 100 100 100 100
100 100 100 100 100 100 100 100 100 100 100 100 100 100 100 100 100 100 100 100 100 100
100 100 100 100 100 100 100 100 100 100 100 100 100 100 100 100 100 100 100 100 100 76

GFSNIL_prec_cloud_093.txt.gz
Cloud_Cover
100 100 100 100 100 100 100 100 100 100 100 100 100 100 100 100 100 100 100 100 100 100
100 100 100 100 100 100 100 100 100 100 100 100 100 100 100 100 100 100 100 100 100 100
98 100 100 100 100 100 100 100 100 100 100 100 100 100 100 100 100 100 100 100 100 100
52 65 100 100 100 100 100 100 100 100 100 99 100 100 100 100 100 100 100 100 100 100
5 19 100 100 95 100 100 100 100 100 100 100 100 100 100 100 100 100 100 100 100 100
85 60 59 29 15 44 90 60 67 46 96 100 100 100 100 100 100 100 100 100 100 100
78 46 38 50 5 73 99 96 100 47 99 97 68 98 88 100 100 100 100 100 100 100
8 7 10 5 5 74 100 100 100 100 100 92 80 100 100 100 100 100 100 100 100 100
9 5 5 5 31 100 100 100 100 100 100 100 100 100 100 100 100 100 100 100 100 100
0 0 0 0 0 70 100 100 100 100 100 100 100 100 100 100 100 100 100 100 100 100
5 5 3 5 19 98 100 100 100 100 100 100 100 100 100 100 100 100 100 100 100 100
5 22 70 68 100 100 100 100 100 100 100 100 100 100 100 100 100 100 100 100 100 100
86 100 100 100 100 100 100 100 100 100 100 100 100 100 100 100 100 100 100 100 100 100
97 99 91 84 100 100 100 100 100 100 100 100 100 100 100 100 100 100 100 100 100 100

GFSNIL_prec_cloud_096.txt.gz
Cloud_Cover
100 100 100 100 100 100 100 100 100 100 100 100 100 100 100 100 100 100 100 100 100 100
100 100 100 100 100 100 100 100 100 100 100 100 100 100 100 100 100 100 100 100 100 100
100 100 100 100 100 100 100 100 100 100 100 100 100 100 100 100 100 100 100 100 100 100
86 100 100 100 100 100 100 100 100 100 100 100 100 100 100 100 100 100 100 100 100 100
99 64 76 100 100 100 100 100 100 100 100 100 100 100 100 100 100 100 100 100 100 100
61 20 6 36 98 93 85 99 100 100 100 100 100 100 100 100 100 100 100 100 100 100
100 61 6 0 1 3 17 44 52 49 13 24 66 72 84 99 100 100 100 100 100 100
61 85 95 100 97 95 90 27 0 1 0 0 7 75 93 94 68 90 81 71 98 100
1 0 2 2 5 5 9 84 93 100 99 100 100 99 58 90 100 100 100 100 100 100
0 0 0 0 0 0 2 0 0 16 64 85 100 100 100 100 100 100 100 100 100 100
0 0 0 5 2 35 13 35 83 100 100 100 100 100 100 100 100 100 100 100 100 100
5 5 5 9 49 62 74 80 100 100 100 100 100 100 100 100 100 100 100 100 100 100
31 25 66 62 85 82 91 83 100 100 100 100 100 100 100 100 100 100 100 100 100 100
100 99 100 98 82 86 82 100 100 100 100 100 100 100 100 100 100 100 100 100 100 100

GFSNIL_prec_cloud_099.txt.gz
Cloud_Cover
100 100 100 100 100 100 100 100 100 100 100 100 100 100 100 100 100 100 100 100 100 100
100 100 100 100 100 100 100 100 100 100 100 100 100 100 100 100 100 100 100 100 100 100
100 100 100 100 100 100 100 100 100 100 100 100 100 100 100 100 100 100 100 100 100 100
99 100 100 100 100 100 100 100 100 100 100 100 100 100 100 100 100 100 100 100 100 100
75 96 98 100 100 100 100 100 100 100 100 100 100 100 100 100 100 100 100 100 100 100
91 100 100 100 100 100 100 100 100 100 100 100 100 100 100 100 100 100 100 100 100 100
78 76 48 2 99 100 94 100 100 92 98 100 100 100 100 100 100 100 100 100 100 100
100 96 88 96 40 15 45 100 100 74 25 4 9 30 76 100 95 100 100 100 83 98
100 100 91 100 100 91 67 26 0 0 0 0 0 0 0 19 30 99 100 100 100 100
0 0 0 12 21 54 78 74 98 43 40 51 88 46 95 100 100 100 100 100 100 100
0 0 0 0 0 0 1 4 24 47 45 51 98 100 100 100 100 100 100 100 100 100
0 0 0 0 4 27 28 60 91 73 62 98 100 100 100 100 100 100 100 100 100 100
5 5 5 5 68 100 100 100 99 97 42 100 100 100 100 100 100 100 100 100 100 84
5 5 8 25 58 100 100 100 100 99 73 100 100 100 100 100 100 100 97 100 100 98

GFSNIL_prec_cloud_102.txt.gz
Cloud_Cover
81 100 100 100 100 100 100 100 100 100 100 100 100 100 100 100 100 100 100 100 100 100
100 100 100 100 100 100 100 100 100 100 100 100 100 100 100 100 100 100 100 100 100 100
100 100 100 100 100 100 100 100 100 100 100 100 100 100 100 100 89 100 100 100 100 100
98 100 100 100 100 100 100 100 100 100 100 100 100 100 100 100 100 100 100 100 100 100
100 100 100 100 100 100 100 100 100 100 100 100 100 100 100 100 100 100 100 100 100 100
100 100 100 100 99 100 100 100 98 100 100 100 100 100 100 100 100 100 100 100 100 100
100 100 100 100 99 97 100 100 100 88 100 100 100 100 100 100 100 100 100 100 100 100
100 88 100 100 95 100 97 100 94 53 82 100 100 93 100 100 100 100 100 100 100 100
36 100 100 97 78 85 100 100 100 2 0 98 53 5 4 0 0 3 4 40 100 100
100 100 100 100 94 100 76 9 11 61 67 6 3 4 18 90 100 100 100 100 100 100
2 99 100 100 100 100 100 100 97 59 23 64 98 63 95 100 100 100 100 100 100 100
0 0 6 78 7 5 4 2 12 71 80 38 93 93 100 100 100 100 100 100 100 100
0 0 0 0 5 34 49 100 100 100 14 9 45 100 100 100 100 100 100 100 100 100
0 0 1 5 8 50 99 100 100 100 39 18 5 88 100 100 100 100 100 100 100 100

GFSNIL_prec_cloud_105.txt.gz
Cloud_Cover
74 99 100 100 100 100 100 98 100 100 100 100 100 100 100 100 100 100 100 100 100 100
3 4 65 50 90 100 100 95 100 100 100 100 100 100 100 100 100 100 100 100 100 100
37 41 94 80 41 19 82 100 100 100 100 100 100 100 100 100 80 100 100 100 100 100
46 50 50 32 97 100 92 89 100 100 100 100 100 100 100 100 100 100 99 100 100 100
64 96 100 100 83 100 100 100 100 100 100 100 100 100 100 100 100 100 100 100 100 100
61 85 100 88 99 100 98 100 100 100 84 100 98 100 100 100 100 100 100 100 100 100
3 2 3 4 89 100 91 100 99 69 100 100 99 100 100 100 100 100 100 100 100 100
5 0 0 0 0 100 100 100 100 99 100 100 100 100 100 77 86 45 91 100 100 100
8 0 0 0 0 18 100 100 100 100 100 100 72 96 98 100 93 47 59 99 64 93
3 0 0 0 4 59 97 100 100 94 94 39 100 31 5 84 100 100 100 100 98 100
0 0 0 0 0 5 15 100 100 95 88 100 20 69 100 68 99 80 88 100 100 100
0 0 0 0 0 0 0 14 100 84 54 53 17 63 100 100 90 96 100 100 100 100
0 0 0 0 0 0 3 5 22 95 31 18 68 100 100 84 58 89 100 100 100 100
0 0 0 0 0 10 8 89 100 100 99 98 100 95 100 94 47 98 100 100 100 100

GFSNIL_prec_cloud_108.txt.gz
Cloud_Cover
100 100 100 100 100 100 100 100 100 100 100 100 100 100 97 100 100 100 100 100 100 100
100 100 100 100 100 100 100 100 100 100 100 100 100 100 100 100 100 100 100 100 100 100
100 100 100 100 90 100 100 100 100 100 100 100 100 100 100 100 100 100 100 100 100 100
83 35 100 29 74 71 100 84 96 100 100 100 100 100 100 100 100 100 100 100 100 100
56 12 87 88 92 100 100 62 83 98 98 100 92 100 100 100 100 100 100 100 100 100
17 23 89 93 100 99 97 76 98 92 100 100 100 100 100 100 100 100 93 100 100 100
72 76 56 77 78 90 28 5 5 39 70 27 94 21 100 100 100 100 100 100 99 100
38 63 63 6 4 2 1 4 76 96 76 17 31 71 97 100 100 100 100 100 100 100
11 46 21 20 0 0 4 1 0 0 0 0 3 100 88 100 100 100 100 100 100 100
83 100 86 5 0 5 3 0 0 0 0 0 5 50 100 100 100 100 100 100 100 100
100 100 34 7 21 12 4 0 0 0 0 0 1 5 98 100 100 100 98 58 80 80
100 47 52 93 12 8 26 1 0 0 0 1 4 13 98 100 77 73 97 100 100 100
100 100 70 72 100 45 5 0 2 12 42 17 13 65 100 98 9 10 32 47 94 98
100 100 100 100 94 5 4 2 27 84 97 47 27 23 100 100 100 17 6 40 80 100

GFSNIL_prec_cloud_111.txt.gz
Cloud_Cover
100 100 100 100 100 100 100 100 100 100 100 100 100 100 98 100 100 100 100 100 100 100
100 100 100 100 100 98 98 100 100 100 100 100 100 100 100 100 100 100 100 100 100 100
100 100 100 100 100 100 93 97 74 100 100 100 100 100 100 100 100 100 100 100 100 100
100 100 100 100 96 100 100 100 100 100 100 100 100 100 100 100 100 100 100 100 100 100
100 100 100 100 100 100 100 100 100 100 100 100 100 100 100 100 100 100 100 100 100 100
97 100 100 100 100 100 100 100 100 100 82 91 97 100 100 99 100 100 100 99 54 99
87 73 53 88 100 98 100 100 98 100 100 100 100 100 100 61 76 100 92 73 74 26
36 5 18 20 5 5 5 5 5 5 45 80 43 21 38 5 4 15 5 4 8 84
16 5 5 7 28 48 4 5 0 0 0 0 0 0 13 13 55 92 78 34 4 5
29 5 11 33 10 6 5 3 2 0 0 1 0 0 40 95 100 100 100 100 46 6
46 100 100 72 5 38 11 24 40 50 2 2 4 0 3 81 79 100 96 98 98 92
99 93 54 79 72 100 98 43 50 100 99 29 5 0 80 76 70 25 15 5 7 44
98 77 62 71 91 6 98 100 100 100 99 11 5 4 100 100 53 34 52 8 5 5
100 99 95 94 100 100 100 100 100 94 100 100 6 2 9 99 97 100 100 100 37 31

GFSNIL_prec_cloud_114.txt.gz
Cloud_Cover
100 100 100 100 100 100 100 100 100 100 100 100 100 100 100 100 100 100 100 100 100 100
100 100 100 100 100 100 100 100 100 100 100 100 100 100 100 100 100 100 100 100 100 100
100 100 100 100 100 100 100 100 100 100 100 100 100 100 91 100 100 100 100 100 100 100
100 100 100 100 100 100 100 100 100 100 100 100 100 100 94 68 100 100 100 100 100 100
100 100 100 100 100 100 100 100 100 100 100 100 100 100 95 79 95 85 100 99 100 100
100 100 100 100 100 100 100 100 100 100 100 100 100 100 87 100 100 100 100 91 100 100
100 100 98 87 100 100 100 100 100 100 100 100 100 100 100 100 100 100 100 89 100 99
100 100 100 100 100 100 100 100 100 100 100 100 100 100 100 100 100 100 100 100 100 100
100 100 100 100 100 100 100 100 100 100 100 100 100 100 100 100 100 100 100 100 100 100
100 100 100 100 100 100 100 100 100 100 100 100 100 100 100 100 100 100 100 100 61 2
100 100 100 100 100 100 100 100 100 100 100 100 100 100 100 59 49 68 42 21 2 0
64 84 100 100 100 100 100 100 100 86 98 100 100 100 99 26 3 5 5 5 5 5
17 5 5 5 5 5 5 9 16 7 14 25 61 4 92 74 12 5 5 8 85 98
5 5 7 4 5 5 5 9 27 24 61 93 69 77 12 100 90 37 33 100 100 100

GFSNIL_prec_cloud_117.txt.gz
Cloud_Cover
100 100 100 100 100 100 100 100 100 100 100 100 100 100 100 100 100 100 100 100 100 100
100 100 100 100 100 100 100 100 100 100 100 100 100 100 100 100 100 100 100 100 100 99
100 100 100 100 100 100 100 100 100 100 100 100 100 100 100 100 100 100 100 100 100 100
100 100 100 100 100 100 100 100 100 100 100 100 100 100 100 100 100 100 100 100 100 100
100 100 100 100 100 100 100 100 100 100 100 100 100 100 100 100 100 100 100 100 100 100
100 100 100 100 100 100 100 100 100 100 100 100 100 100 100 100 100 100 100 100 100 100
100 100 100 100 100 100 100 100 100 100 100 100 100 100 100 100 100 100 100 100 100 100
100 100 100 100 100 100 100 100 100 100 100 100 100 100 100 100 100 100 100 100 100 100
100 100 100 100 100 100 100 100 100 100 100 100 100 100 100 100 100 100 100 100 100 100
100 100 95 82 74 100 100 100 80 93 95 100 100 100 100 100 100 100 100 100 100 100
100 100 100 100 100 100 100 98 100 85 51 88 100 100 100 100 100 100 100 100 100 100
100 100 100 100 100 100 100 100 100 100 92 100 100 100 100 100 100 100 100 100 100 100
100 100 100 100 100 100 100 100 100 85 100 100 100 100 100 100 100 100 98 99 99 100
100 100 100 100 100 100 100 100 100 100 100 100 100 100 100 100 100 100 100 100 100 100

GFSNIL_prec_cloud_120.txt.gz
Cloud_Cover
100 100 100 100 100 100 100 100 100 100 100 100 100 100 100 100 100 100 100 100 95 100
100 100 100 100 100 100 100 100 100 100 100 100 100 100 100 100 100 100 100 100 100 100
100 100 100 100 100 100 100 100 100 100 100 100 100 100 100 100 100 100 100 100 100 100
100 100 100 100 100 100 100 100 100 100 100 100 100 100 100 100 100 100 100 100 100 100
100 100 100 100 100 100 100 100 100 100 100 100 100 100 100 100 100 100 100 100 100 100
100 100 100 100 100 100 100 100 100 100 100 100 100 100 100 100 100 100 100 100 100 100
100 100 100 100 100 100 100 100 100 100 100 100 100 100 100 100 100 100 100 100 100 100
100 100 100 100 100 100 100 100 100 100 100 100 100 100 100 100 100 100 100 100 100 100
100 100 100 100 100 100 100 100 100 100 100 100 100 100 100 100 100 100 100 100 100 100
100 100 100 100 100 100 100 100 100 100 100 100 100 100 100 100 100 100 100 100 100 100
100 100 100 100 100 100 100 100 100 100 100 100 100 100 100 100 100 100 100 100 100 100
100 100 100 100 100 100 100 100 100 100 100 100 100 100 100 100 100 100 100 100 100 100
100 100 100 100 100 100 100 100 100 100 100 100 100 100 100 100 100 100 99 98 99 100
100 100 100 100 100 100 100 100 100 100 100 100 100 100 100 100 100 96 100 100 100 100